Time,TemperatureF,DewpointF,PressureIn,WindDirection,WindDirectionDegrees,WindSpeedMPH,WindSpeedGustMPH,Humidity,HourlyPrecipIn,Conditions,Clouds,dailyrainin,SoftwareType,DateUTC
2014-12-20 00:02:00,51.4,46.8,30.09,West,270,0.0,0.0,84,0.00,,,0.00,meteohub,2014-12-20 05:02:00,
2014-12-20 00:07:00,51.4,46.8,30.09,West,270,0.0,0.0,84,0.00,,,0.00,meteohub,2014-12-20 05:07:00,
2014-12-20 00:12:00,51.3,46.6,30.08,West,270,0.0,0.0,84,0.00,,,0.00,meteohub,2014-12-20 05:12:00,
2014-12-20 00:17:00,51.1,46.8,30.08,West,270,0.0,0.0,85,0.00,,,0.00,meteohub,2014-12-20 05:17:00,
2014-12-20 00:21:00,51.1,46.8,30.08,West,270,0.0,0.0,85,0.00,,,0.00,meteohub,2014-12-20 05:21:00,
2014-12-20 00:26:00,51.1,46.8,30.07,West,270,0.0,0.0,85,0.00,,,0.00,meteohub,2014-12-20 05:26:00,
2014-12-20 00:31:00,50.9,46.9,30.08,West,270,0.0,0.0,86,0.00,,,0.00,meteohub,2014-12-20 05:31:00,
2014-12-20 00:36:00,50.9,46.9,30.07,West,270,0.0,0.0,86,0.00,,,0.00,meteohub,2014-12-20 05:36:00,
2014-12-20 00:42:00,50.7,46.9,30.07,West,270,0.0,0.0,87,0.00,,,0.00,meteohub,2014-12-20 05:42:00,
2014-12-20 00:47:00,50.7,47.3,30.08,West,270,0.0,0.0,88,0.00,,,0.00,meteohub,2014-12-20 05:47:00,
2014-12-20 00:52:00,50.7,47.7,30.07,West,270,0.0,0.0,89,0.00,,,0.00,meteohub,2014-12-20 05:52:00,
2014-12-20 00:57:00,50.5,47.5,30.07,West,270,0.0,0.0,89,0.00,,,0.00,meteohub,2014-12-20 05:57:00,
2014-12-20 01:02:00,50.4,47.3,30.07,West,270,0.0,0.0,89,0.00,,,0.00,meteohub,2014-12-20 06:02:00,
2014-12-20 01:07:00,50.4,47.3,30.07,West,270,0.0,0.0,89,0.00,,,0.00,meteohub,2014-12-20 06:07:00,
2014-12-20 01:12:00,50.2,47.3,30.07,West,270,0.0,0.0,90,0.00,,,0.00,meteohub,2014-12-20 06:12:00,
2014-12-20 01:17:00,50.2,47.3,30.08,West,270,0.0,0.0,90,0.00,,,0.00,meteohub,2014-12-20 06:17:00,
2014-12-20 01:22:00,50.0,47.1,30.08,West,270,0.0,0.0,90,0.00,,,0.00,meteohub,2014-12-20 06:22:00,
2014-12-20 01:27:00,49.8,47.3,30.08,West,270,1.0,0.0,91,0.00,,,0.00,meteohub,2014-12-20 06:27:00,
2014-12-20 01:31:00,48.9,46.4,30.08,West,270,0.0,2.0,91,0.00,,,0.00,meteohub,2014-12-20 06:31:00,
2014-12-20 01:37:00,48.4,45.9,30.08,West,270,0.0,2.0,91,0.00,,,0.00,meteohub,2014-12-20 06:37:00,
2014-12-20 01:42:00,48.4,46.2,30.08,West,270,0.0,2.0,92,0.00,,,0.00,meteohub,2014-12-20 06:42:00,
2014-12-20 01:47:00,48.4,46.2,30.08,West,270,0.0,0.0,92,0.00,,,0.00,meteohub,2014-12-20 06:47:00,
2014-12-20 01:52:00,48.4,46.2,30.08,West,270,0.0,0.0,92,0.00,,,0.00,meteohub,2014-12-20 06:52:00,
2014-12-20 01:57:00,48.2,46.2,30.08,West,270,0.0,0.0,93,0.00,,,0.00,meteohub,2014-12-20 06:57:00,
2014-12-20 02:02:00,48.2,46.2,30.08,West,270,0.0,0.0,93,0.00,,,0.00,meteohub,2014-12-20 07:02:00,
2014-12-20 02:07:00,48.6,46.6,30.09,West,270,0.0,0.0,93,0.00,,,0.00,meteohub,2014-12-20 07:07:00,
2014-12-20 02:12:00,48.7,46.8,30.08,West,270,0.0,0.0,93,0.00,,,0.00,meteohub,2014-12-20 07:12:00,
2014-12-20 02:17:00,48.7,46.8,30.09,West,270,0.0,0.0,93,0.00,,,0.00,meteohub,2014-12-20 07:17:00,
2014-12-20 02:22:00,48.9,46.9,30.08,West,270,0.0,0.0,93,0.00,,,0.00,meteohub,2014-12-20 07:22:00,
2014-12-20 02:27:00,49.1,47.5,30.08,West,270,0.0,0.0,94,0.00,,,0.00,meteohub,2014-12-20 07:27:00,
2014-12-20 02:32:00,49.5,47.8,30.08,West,270,0.0,0.0,94,0.00,,,0.00,meteohub,2014-12-20 07:32:00,
2014-12-20 02:37:00,49.6,48.0,30.08,West,270,0.0,0.0,94,0.00,,,0.00,meteohub,2014-12-20 07:37:00,
2014-12-20 02:42:00,49.8,48.2,30.08,West,270,0.0,0.0,94,0.00,,,0.00,meteohub,2014-12-20 07:42:00,
2014-12-20 02:47:00,50.0,48.0,30.08,West,270,0.0,0.0,93,0.00,,,0.00,meteohub,2014-12-20 07:47:00,
2014-12-20 02:51:00,50.0,48.0,30.07,West,270,0.0,0.0,93,0.00,,,0.00,meteohub,2014-12-20 07:51:00,
2014-12-20 02:56:00,49.8,48.2,30.08,West,270,0.0,0.0,94,0.00,,,0.00,meteohub,2014-12-20 07:56:00,
2014-12-20 03:02:00,49.6,48.0,30.08,West,270,0.0,0.0,94,0.00,,,0.00,meteohub,2014-12-20 08:02:00,
2014-12-20 03:07:00,49.6,48.0,30.08,West,270,0.0,0.0,94,0.00,,,0.00,meteohub,2014-12-20 08:07:00,
2014-12-20 03:12:00,49.3,47.8,30.08,West,270,0.0,0.0,95,0.00,,,0.00,meteohub,2014-12-20 08:12:00,
2014-12-20 03:17:00,48.9,47.5,30.08,West,270,0.0,0.0,95,0.00,,,0.00,meteohub,2014-12-20 08:17:00,
2014-12-20 03:22:00,48.7,47.3,30.08,West,270,0.0,0.0,95,0.00,,,0.00,meteohub,2014-12-20 08:22:00,
2014-12-20 03:27:00,48.7,47.7,30.08,West,270,0.0,0.0,96,0.00,,,0.00,meteohub,2014-12-20 08:27:00,
2014-12-20 03:32:00,48.9,48.0,30.08,West,270,0.0,0.0,97,0.00,,,0.00,meteohub,2014-12-20 08:32:00,
2014-12-20 03:37:00,48.9,48.4,30.08,West,270,0.0,0.0,98,0.00,,,0.00,meteohub,2014-12-20 08:37:00,
2014-12-20 03:42:00,48.7,48.2,30.07,West,270,0.0,0.0,98,0.00,,,0.00,meteohub,2014-12-20 08:42:00,
2014-12-20 03:47:00,48.6,48.0,30.08,West,270,0.0,0.0,98,0.00,,,0.00,meteohub,2014-12-20 08:47:00,
2014-12-20 03:52:00,48.4,48.2,30.08,West,270,0.0,0.0,99,0.00,,,0.00,meteohub,2014-12-20 08:52:00,
2014-12-20 03:57:00,48.2,48.0,30.08,West,270,0.0,0.0,99,0.00,,,0.00,meteohub,2014-12-20 08:57:00,
2014-12-20 04:02:00,48.0,47.8,30.08,West,270,0.0,0.0,99,0.00,,,0.00,meteohub,2014-12-20 09:02:00,
2014-12-20 04:07:00,47.7,47.5,30.08,West,270,0.0,0.0,99,0.00,,,0.00,meteohub,2014-12-20 09:07:00,
2014-12-20 04:12:00,47.5,47.3,30.08,West,270,0.0,0.0,99,0.00,,,0.00,meteohub,2014-12-20 09:12:00,
2014-12-20 04:17:00,47.5,47.3,30.08,West,270,0.0,0.0,99,0.00,,,0.00,meteohub,2014-12-20 09:17:00,
2014-12-20 04:22:00,47.3,47.1,30.07,West,270,0.0,0.0,99,0.00,,,0.00,meteohub,2014-12-20 09:22:00,
2014-12-20 04:27:00,47.3,47.1,30.08,West,270,0.0,0.0,99,0.00,,,0.00,meteohub,2014-12-20 09:27:00,
2014-12-20 04:32:00,46.9,46.8,30.08,West,270,0.0,0.0,99,0.00,,,0.00,meteohub,2014-12-20 09:32:00,
2014-12-20 04:37:00,46.9,46.8,30.08,West,270,0.0,0.0,99,0.00,,,0.00,meteohub,2014-12-20 09:37:00,
2014-12-20 04:42:00,46.9,46.8,30.08,West,270,0.0,0.0,99,0.00,,,0.00,meteohub,2014-12-20 09:42:00,
2014-12-20 04:47:00,46.9,46.8,30.07,West,270,0.0,0.0,99,0.00,,,0.00,meteohub,2014-12-20 09:47:00,
2014-12-20 04:52:00,46.9,46.8,30.07,West,270,0.0,0.0,99,0.00,,,0.00,meteohub,2014-12-20 09:52:00,
2014-12-20 04:57:00,47.3,47.1,30.08,West,270,0.0,0.0,99,0.00,,,0.00,meteohub,2014-12-20 09:57:00,
2014-12-20 05:02:00,47.7,47.5,30.08,West,270,0.0,0.0,99,0.00,,,0.00,meteohub,2014-12-20 10:02:00,
2014-12-20 05:07:00,48.2,48.0,30.08,West,270,0.0,0.0,99,0.00,,,0.00,meteohub,2014-12-20 10:07:00,
2014-12-20 05:12:00,48.7,48.6,30.07,West,270,0.0,0.0,99,0.00,,,0.00,meteohub,2014-12-20 10:12:00,
2014-12-20 05:17:00,49.3,49.1,30.07,West,270,0.0,0.0,99,0.00,,,0.00,meteohub,2014-12-20 10:17:00,
2014-12-20 05:22:00,49.6,49.5,30.08,West,270,0.0,2.0,99,0.00,,,0.00,meteohub,2014-12-20 10:22:00,
2014-12-20 05:27:00,49.6,49.5,30.07,West,270,0.0,2.0,99,0.00,,,0.00,meteohub,2014-12-20 10:27:00,
2014-12-20 05:32:00,49.6,49.5,30.08,West,270,0.0,2.0,99,0.00,,,0.00,meteohub,2014-12-20 10:32:00,
2014-12-20 05:37:00,49.8,49.5,30.09,West,270,0.0,0.0,99,0.00,,,0.00,meteohub,2014-12-20 10:37:00,
2014-12-20 05:42:00,50.2,49.8,30.09,West,270,0.0,1.0,99,0.00,,,0.00,meteohub,2014-12-20 10:42:00,
2014-12-20 05:47:00,50.2,49.8,30.08,West,270,0.0,1.0,99,0.00,,,0.00,meteohub,2014-12-20 10:47:00,
2014-12-20 05:52:00,50.2,49.8,30.09,West,270,0.0,1.0,99,0.00,,,0.00,meteohub,2014-12-20 10:52:00,
2014-12-20 05:57:00,50.2,49.8,30.09,West,270,0.0,0.0,99,0.00,,,0.00,meteohub,2014-12-20 10:57:00,
2014-12-20 06:02:00,50.2,49.8,30.09,West,270,0.0,0.0,99,0.00,,,0.00,meteohub,2014-12-20 11:02:00,
2014-12-20 06:07:00,50.4,50.0,30.09,West,270,0.0,1.0,99,0.00,,,0.00,meteohub,2014-12-20 11:07:00,
2014-12-20 06:12:00,50.5,50.2,30.09,West,270,0.0,1.0,99,0.00,,,0.00,meteohub,2014-12-20 11:12:00,
2014-12-20 06:17:00,50.5,50.2,30.09,West,270,0.0,1.0,99,0.00,,,0.00,meteohub,2014-12-20 11:17:00,
2014-12-20 06:22:00,50.4,50.0,30.10,West,270,0.0,0.0,99,0.00,,,0.00,meteohub,2014-12-20 11:22:00,
2014-12-20 06:27:00,50.2,49.8,30.10,West,270,0.0,0.0,99,0.00,,,0.00,meteohub,2014-12-20 11:27:00,
2014-12-20 06:32:00,50.2,49.8,30.10,West,270,0.0,0.0,99,0.00,,,0.00,meteohub,2014-12-20 11:32:00,
2014-12-20 06:37:00,50.0,49.6,30.10,West,270,0.0,0.0,99,0.00,,,0.00,meteohub,2014-12-20 11:37:00,
2014-12-20 06:42:00,50.0,49.6,30.10,West,270,0.0,0.0,99,0.00,,,0.00,meteohub,2014-12-20 11:42:00,
2014-12-20 06:47:00,50.2,49.8,30.10,West,270,0.0,0.0,99,0.00,,,0.00,meteohub,2014-12-20 11:47:00,
2014-12-20 06:52:00,50.2,49.8,30.11,West,270,0.0,0.0,99,0.00,,,0.00,meteohub,2014-12-20 11:52:00,
2014-12-20 06:57:00,50.0,49.6,30.10,West,270,0.0,0.0,99,0.00,,,0.00,meteohub,2014-12-20 11:57:00,
2014-12-20 07:02:00,49.8,49.5,30.11,West,270,0.0,0.0,99,0.00,,,0.00,meteohub,2014-12-20 12:02:00,
2014-12-20 07:07:00,49.5,49.3,30.11,West,270,0.0,0.0,99,0.00,,,0.00,meteohub,2014-12-20 12:07:00,
2014-12-20 07:12:00,49.5,49.3,30.11,West,270,0.0,0.0,99,0.00,,,0.00,meteohub,2014-12-20 12:12:00,
2014-12-20 07:16:00,49.1,48.9,30.12,West,270,0.0,0.0,99,0.00,,,0.00,meteohub,2014-12-20 12:16:00,
2014-12-20 07:21:00,48.9,48.7,30.11,West,270,0.0,0.0,99,0.00,,,0.00,meteohub,2014-12-20 12:21:00,
2014-12-20 07:27:00,48.9,48.7,30.11,West,270,0.0,0.0,99,0.00,,,0.00,meteohub,2014-12-20 12:27:00,
2014-12-20 07:32:00,48.9,48.7,30.11,West,270,0.0,0.0,99,0.00,,,0.00,meteohub,2014-12-20 12:32:00,
2014-12-20 07:37:00,48.9,48.7,30.11,West,270,0.0,0.0,99,0.00,,,0.00,meteohub,2014-12-20 12:37:00,
2014-12-20 07:42:00,48.9,48.7,30.11,West,270,0.0,0.0,99,0.00,,,0.00,meteohub,2014-12-20 12:42:00,
2014-12-20 07:46:00,49.3,49.1,30.11,West,270,0.0,0.0,99,0.00,,,0.00,meteohub,2014-12-20 12:46:00,
2014-12-20 07:51:00,49.5,49.3,30.11,West,270,0.0,0.0,99,0.00,,,0.00,meteohub,2014-12-20 12:51:00,
2014-12-20 07:57:00,49.5,49.3,30.11,West,270,0.0,0.0,99,0.00,,,0.00,meteohub,2014-12-20 12:57:00,
2014-12-20 08:02:00,49.6,49.5,30.11,West,270,0.0,0.0,99,0.00,,,0.00,meteohub,2014-12-20 13:02:00,
2014-12-20 08:06:00,50.0,49.6,30.12,West,270,0.0,0.0,99,0.00,,,0.00,meteohub,2014-12-20 13:06:00,
2014-12-20 08:11:00,50.4,50.0,30.13,West,270,0.0,0.0,99,0.00,,,0.00,meteohub,2014-12-20 13:11:00,
2014-12-20 08:17:00,50.5,50.2,30.12,West,270,0.0,0.0,99,0.00,,,0.00,meteohub,2014-12-20 13:17:00,
2014-12-20 08:22:00,50.9,50.5,30.13,West,270,0.0,0.0,99,0.00,,,0.00,meteohub,2014-12-20 13:22:00,
2014-12-20 08:27:00,51.6,51.3,30.12,West,270,0.0,0.0,99,0.00,,,0.00,meteohub,2014-12-20 13:27:00,
2014-12-20 08:32:00,52.3,51.8,30.13,West,270,0.0,0.0,98,0.00,,,0.00,meteohub,2014-12-20 13:32:00,
2014-12-20 08:37:00,52.9,52.3,30.13,West,270,0.0,0.0,98,0.00,,,0.00,meteohub,2014-12-20 13:37:00,
2014-12-20 08:42:00,53.8,52.9,30.13,West,270,0.0,0.0,97,0.00,,,0.00,meteohub,2014-12-20 13:42:00,
2014-12-20 08:47:00,55.0,54.1,30.12,West,270,0.0,0.0,97,0.00,,,0.00,meteohub,2014-12-20 13:47:00,
2014-12-20 08:52:00,56.3,55.9,30.13,West,270,0.0,0.0,99,0.00,,,0.00,meteohub,2014-12-20 13:52:00,
2014-12-20 08:57:00,60.3,59.9,30.13,West,270,1.0,1.0,99,0.00,,,0.00,meteohub,2014-12-20 13:57:00,
2014-12-20 09:02:00,62.1,61.5,30.12,West,270,2.0,2.0,98,0.00,,,0.00,meteohub,2014-12-20 14:02:00,
2014-12-20 09:07:00,62.1,60.6,30.12,West,270,2.0,3.0,95,0.00,,,0.00,meteohub,2014-12-20 14:07:00,
2014-12-20 09:12:00,61.7,58.8,30.12,West,270,0.0,3.0,90,0.00,,,0.00,meteohub,2014-12-20 14:12:00,
2014-12-20 09:17:00,61.7,58.5,30.12,West,270,1.0,3.0,89,0.00,,,0.00,meteohub,2014-12-20 14:17:00,
2014-12-20 09:22:00,61.9,58.3,30.12,West,270,0.0,2.0,88,0.00,,,0.00,meteohub,2014-12-20 14:22:00,
2014-12-20 09:27:00,64.9,60.6,30.12,West,270,4.0,4.0,86,0.00,,,0.00,meteohub,2014-12-20 14:27:00,
2014-12-20 09:32:00,65.5,60.4,30.12,West,270,2.0,5.0,84,0.00,,,0.00,meteohub,2014-12-20 14:32:00,
2014-12-20 09:37:00,65.5,60.4,30.12,West,270,2.0,5.0,84,0.00,,,0.00,meteohub,2014-12-20 14:37:00,
2014-12-20 09:42:00,66.2,59.9,30.12,West,270,2.0,4.0,80,0.00,,,0.00,meteohub,2014-12-20 14:42:00,
2014-12-20 09:47:00,67.3,61.0,30.12,West,270,0.0,2.0,80,0.00,,,0.00,meteohub,2014-12-20 14:47:00,
2014-12-20 09:52:00,67.3,59.5,30.12,West,270,4.0,4.0,76,0.00,,,0.00,meteohub,2014-12-20 14:52:00,
2014-12-20 09:57:00,66.4,59.0,30.12,West,270,1.0,8.0,77,0.00,,,0.00,meteohub,2014-12-20 14:57:00,
2014-12-20 10:02:00,66.4,59.7,30.13,West,270,0.0,8.0,79,0.00,,,0.00,meteohub,2014-12-20 15:02:00,
2014-12-20 10:07:00,67.8,61.0,30.12,West,270,0.0,8.0,79,0.00,,,0.00,meteohub,2014-12-20 15:07:00,
2014-12-20 10:12:00,69.8,61.2,30.13,West,270,0.0,4.0,74,0.00,,,0.00,meteohub,2014-12-20 15:12:00,
2014-12-20 10:17:00,70.3,60.1,30.12,West,270,0.0,4.0,70,0.00,,,0.00,meteohub,2014-12-20 15:17:00,
2014-12-20 10:22:00,70.9,60.6,30.13,West,270,0.0,4.0,70,0.00,,,0.00,meteohub,2014-12-20 15:22:00,
2014-12-20 10:27:00,71.8,61.0,30.13,West,270,0.0,4.0,69,0.00,,,0.00,meteohub,2014-12-20 15:27:00,
2014-12-20 10:32:00,72.9,61.7,30.13,West,270,0.0,4.0,68,0.00,,,0.00,meteohub,2014-12-20 15:32:00,
2014-12-20 10:37:00,73.2,61.5,30.13,West,270,0.0,2.0,67,0.00,,,0.00,meteohub,2014-12-20 15:37:00,
2014-12-20 10:42:00,73.4,61.3,30.12,West,270,1.0,2.0,66,0.00,,,0.00,meteohub,2014-12-20 15:42:00,
2014-12-20 10:47:00,73.4,61.3,30.12,West,270,0.0,3.0,66,0.00,,,0.00,meteohub,2014-12-20 15:47:00,
2014-12-20 10:52:00,73.9,61.3,30.12,West,270,0.0,3.0,65,0.00,,,0.00,meteohub,2014-12-20 15:52:00,
2014-12-20 10:57:00,74.5,61.9,30.12,West,270,0.0,3.0,65,0.00,,,0.00,meteohub,2014-12-20 15:57:00,
2014-12-20 11:02:00,74.8,62.2,30.12,West,270,0.0,3.0,65,0.00,,,0.00,meteohub,2014-12-20 16:02:00,
2014-12-20 11:07:00,74.8,62.2,30.12,West,270,0.0,3.0,65,0.00,,,0.00,meteohub,2014-12-20 16:07:00,
2014-12-20 11:12:00,74.7,61.2,30.12,West,270,0.0,3.0,63,0.00,,,0.00,meteohub,2014-12-20 16:12:00,
2014-12-20 11:17:00,75.0,62.1,30.12,West,270,0.0,4.0,64,0.00,,,0.00,meteohub,2014-12-20 16:17:00,
2014-12-20 11:22:00,76.6,62.6,30.12,West,270,2.0,4.0,62,0.00,,,0.00,meteohub,2014-12-20 16:22:00,
2014-12-20 11:27:00,77.7,62.8,30.12,West,270,0.0,3.0,60,0.00,,,0.00,meteohub,2014-12-20 16:27:00,
2014-12-20 11:32:00,76.1,61.7,30.11,West,270,2.0,3.0,61,0.00,,,0.00,meteohub,2014-12-20 16:32:00,
2014-12-20 11:37:00,74.3,60.8,30.10,West,270,0.0,3.0,63,0.00,,,0.00,meteohub,2014-12-20 16:37:00,